Location: Derby
(52.9213°N, 1.4761°W)
Time: 19:26:05
(UTC+01:00)

Tiros 1 - Pass Details

Date: 27 May 2025
Orbit: 620 x 651 km, 48.4° (Epoch: 13 June)

Event Time Altitude Azimuth Distance (km) Brightness Sun altitude
Rises 17:45:39 0° 252° (WSW) 2,890 11.6 28.5°
Reaches altitude 10° 17:48:01 10° 246° (WSW) 1,986 11.0 28.2°
Maximum altitude 17:52:23 47° 173° (S) 831 8.0 27.5°
Drops below altitude 10° 17:56:47 10° 100° (E) 1,999 9.2 26.9°
Sets 17:59:10 0° 95° (E) 2,912 9.9 26.5°
